[Date Prev][Date Next][Thread Prev][Thread Next] - [Date Index][Thread Index][Author Index]
2 Line ISS Keps 5-27
- Subject: [sarex] 2 Line ISS Keps 5-27
- From: "Dave Larsen PhD" <doc@xxxxxxxxxxx>
- Date: Thu, 26 May 2005 20:16:47 -0700
ISS
1 25544U 98067A 05146.96518637 .00012043 00000-0 94089-4 0 5586
2 25544 051.6466 009.6301 0005534 166.0674 335.7448 15.72122266372343
----
Via the sarex mailing list at AMSAT.ORG courtesy of AMSAT-NA.
To unsubscribe, send "unsubscribe sarex" to Majordomo@amsat.org
AMSAT Home